"Pseudo-MPEC" for C2UJDE2

Created 2020 May 26 12:07:04 UT using Find_Orb

Click here for an explanation of pseudo-MPECs

 
 Astrometry: 
     C2UJDE2  C2020 05 22.25594 12 58 32.92 +05 11 03.8    ~5M6q 21.3 GVNEOCPG96
     C2UJDE2  C2020 05 22.26116 12 58 35.32 +05 10 37.8    ~5M6q 21.7 GVNEOCPG96
     C2UJDE2  C2020 05 22.26639 12 58 37.69 +05 10 13.5    ~5M6q 21.5 GVNEOCPG96
     C2UJDE2  C2020 05 22.27162 12 58 40.16 +05 09 48.4    ~5M6q 22.4 GVNEOCPG96

Station data:
(G96) Mt. Lemmon Survey  (N32.442754 W110.788720)  US/Arizona.  Observers T.
   A. Pruyne, B. M. Africano, E. J. Christensen, G. A. Farneth, D. C. Fuls,
   A. R. Gibbs, A. D. Grauer, H. Gröller, J. A. Johnson, R. A. Kowalski, S.
   M. Larson, G. J. Leonard, D. Rankin, R. L. Seaman, F. C. Shelly. 1.5-m
   reflector + 10K CCD.

Orbital elements:  C2UJDE2
   Perihelion 2020 Apr 16.775046 +/- 23.7 TT = 18:36:03 (JD 2458956.275046)
Epoch 2020 May 22.0 TT = JDT 2458991.5   Earth MOID: 0.0031   AutoNEOCP
M  32.14169225 +/- 35               (J2000 ecliptic)
n   0.91246938 +/- 0.622            Peri.   19.91905 +/- 130
a   1.05274660 +/- 0.479            Node   186.12403 +/- 60
e   0.0411261 +/- 0.238             Incl.    0.09002 +/- 29
P   1.08/394.53d           H 31.0   G  0.15   U 12.4  SR
q 1.00945115 +/- 0.382    Q 1.09604204 +/- 21.2
From 4 observations 2020 May 22 (22.6 min); mean residual 0".33
Residuals in arcseconds: 
200522 G96  .15-  .41+    200522 G96  .25-  .10+    
200522 G96  .35+  .67-    200522 G96  .05+  .16+    

Ephemerides (geocentric):
Date (UTC) HH   RA              Dec         delta   r     elong  mag " sig PA
---- -- -- --  -------------   -----------  ------ ------ -----  --- ---- ---
2020 05 26 12  14 03 06.422   -00 25 00.43  981496 1.0184 141.9 21.7  20d   8
2020 05 26 13  14 03 45.667   -00 28 37.89  981380 1.0184 142.0 21.6  21d   8
2020 05 26 14  14 04 24.936   -00 32 15.51  981269 1.0184 142.2 21.6  21d   8
2020 05 26 15  14 05 04.227   -00 35 53.28  981162 1.0184 142.3 21.6  21d   8
2020 05 26 16  14 05 43.540   -00 39 31.19  981059 1.0184 142.4 21.6  21d   8
2020 05 26 17  14 06 22.876   -00 43 09.25  980960 1.0184 142.6 21.6  21d   7
2020 05 26 18  14 07 02.234   -00 46 47.46  980866 1.0184 142.7 21.6  21d   7
2020 05 26 19  14 07 41.613   -00 50 25.80  980776 1.0185 142.8 21.6  21d   7
2020 05 26 20  14 08 21.014   -00 54 04.27  980690 1.0185 142.9 21.6  21d   7
2020 05 26 21  14 09 00.436   -00 57 42.87  980608 1.0185 143.1 21.6  21d   7
2020 05 26 22  14 09 39.879   -01 01 21.60  980530 1.0185 143.2 21.6  21d   7
2020 05 26 23  14 10 19.343   -01 05 00.45  980457 1.0185 143.3 21.6  22d   7
2020 05 27 00  14 10 58.827   -01 08 39.43  980387 1.0185 143.5 21.6  22d   7
2020 05 27 01  14 11 38.332   -01 12 18.51  980323 1.0186 143.6 21.6  22d   7
2020 05 27 02  14 12 17.856   -01 15 57.71  980262 1.0186 143.7 21.6  22d   7
2020 05 27 03  14 12 57.400   -01 19 37.01  980206 1.0186 143.9 21.6  22d   7
2020 05 27 04  14 13 36.964   -01 23 16.42  980153 1.0186 144.0 21.6  22d   7
2020 05 27 05  14 14 16.547   -01 26 55.92  980106 1.0186 144.1 21.6  22d   7
2020 05 27 06  14 14 56.149   -01 30 35.53  980062 1.0186 144.3 21.6  22d   7
2020 05 27 07  14 15 35.769   -01 34 15.22  980023 1.0186 144.4 21.6  22d   7
2020 05 27 08  14 16 15.408   -01 37 55.00  979988 1.0187 144.5 21.6  22d   6
2020 05 27 09  14 16 55.065   -01 41 34.86  979957 1.0187 144.7 21.6  22d   6
2020 05 27 10  14 17 34.740   -01 45 14.81  979931 1.0187 144.8 21.6  22d   6
2020 05 27 11  14 18 14.433   -01 48 54.83  979909 1.0187 144.9 21.6  22d   6
2020 05 27 12  14 18 54.143   -01 52 34.92  979891 1.0187 145.1 21.6  22d   6
2020 05 27 13  14 19 33.870   -01 56 15.08  979878 1.0187 145.2 21.6  22d   6
2020 05 27 14  14 20 13.613   -01 59 55.30  979869 1.0188 145.3 21.6  22d   6
2020 05 27 15  14 20 53.374   -02 03 35.59  979864 1.0188 145.4 21.5  22d   6
2020 05 27 16  14 21 33.150   -02 07 15.93  979864 1.0188 145.6 21.5  22d   6
2020 05 27 17  14 22 12.943   -02 10 56.32  979868 1.0188 145.7 21.5  22d   6
2020 05 27 18  14 22 52.751   -02 14 36.76  979877 1.0188 145.8 21.5  22d   6
2020 05 27 19  14 23 32.575   -02 18 17.24  979889 1.0188 146.0 21.5  23d   6
2020 05 27 20  14 24 12.414   -02 21 57.76  979907 1.0188 146.1 21.5  23d   6
2020 05 27 21  14 24 52.267   -02 25 38.32  979928 1.0189 146.2 21.5  23d   6
2020 05 27 22  14 25 32.136   -02 29 18.91  979954 1.0189 146.4 21.5  23d   6
2020 05 27 23  14 26 12.018   -02 32 59.53  979985 1.0189 146.5 21.5  23d   6
2020 05 28 00  14 26 51.915   -02 36 40.17  980020 1.0189 146.6 21.5  23d   6
2020 05 28 01  14 27 31.825   -02 40 20.83  980059 1.0189 146.8 21.5  23d   6
2020 05 28 02  14 28 11.749   -02 44 01.51  980102 1.0189 146.9 21.5  23d   6
2020 05 28 03  14 28 51.686   -02 47 42.19  980151 1.0190 147.0 21.5  23d   6
2020 05 28 04  14 29 31.637   -02 51 22.89  980203 1.0190 147.2 21.5  23d   6
2020 05 28 05  14 30 11.599   -02 55 03.59  980260 1.0190 147.3 21.5  23d   6
2020 05 28 06  14 30 51.574   -02 58 44.28  980321 1.0190 147.4 21.5  23d   6
2020 05 28 07  14 31 31.561   -03 02 24.97  980387 1.0190 147.6 21.5  23d   6
2020 05 28 08  14 32 11.560   -03 06 05.65  980458 1.0190 147.7 21.5  23d   6
2020 05 28 09  14 32 51.570   -03 09 46.32  980532 1.0190 147.8 21.5  23d   6
2020 05 28 10  14 33 31.591   -03 13 26.97  980612 1.0191 148.0 21.5  23d   6
2020 05 28 11  14 34 11.623   -03 17 07.60  980695 1.0191 148.1 21.5  23d   6